• In Russia
  • List of Countries
  • For 7 days
  • Water Temperature
  • Weather Map
  • Weather Widgets
  • user-avatar
    Login

    Hourly Weather Samarqand

    Today, 17 August, Saturday

    Time Temperature Precipitation Wind Pressure Humidity
    00:00 +17°C° 0 mm 3 mps 697 mmHg 37%
    01:00 +16°C° 0 mm 2 mps 696 mmHg 38%
    02:00 +16°C° 0 mm 2 mps 696 mmHg 39%
    03:00 +16°C° 0 mm 2 mps 696 mmHg 40%
    04:00 +16°C° 0 mm 2 mps 696 mmHg 42%
    05:00 +18°C° 0 mm 3 mps 697 mmHg 38%
    06:00 +20°C° 0 mm 3 mps 697 mmHg 34%
    07:00 +22°C° 0 mm 4 mps 698 mmHg 30%
    08:00 +25°C° 0 mm 4 mps 698 mmHg 27%
    09:00 +27°C° 0 mm 4 mps 698 mmHg 24%
    10:00 +29°C° 0 mm 5 mps 698 mmHg 21%
    11:00 +30°C° 0 mm 4 mps 698 mmHg 19%
    12:00 +32°C° 0 mm 4 mps 697 mmHg 18%
    13:00 +33°C° 0 mm 4 mps 697 mmHg 17%
    14:00 +33°C° 0 mm 4 mps 697 mmHg 17%
    15:00 +33°C° 0 mm 5 mps 697 mmHg 16%
    16:00 +33°C° 0 mm 6 mps 696 mmHg 16%
    17:00 +29°C° 0 mm 6 mps 696 mmHg 20%
    18:00 +27°C° 0 mm 5 mps 696 mmHg 23%
    19:00 +23°C° 0 mm 5 mps 696 mmHg 27%
    20:00 +22°C° 0 mm 5 mps 696 mmHg 29%
    21:00 +21°C° 0 mm 4 mps 695 mmHg 30%
    22:00 +20°C° 0 mm 4 mps 695 mmHg 32%
    23:00 +20°C° 0 mm 3 mps 695 mmHg 33%

    Tomorrow, 18 August, Sunday

    Time Temperature Precipitation Wind Pressure Humidity
    00:00 +19°C° 0 mm 3 mps 695 mmHg 34%
    01:00 +19°C° 0 mm 3 mps 695 mmHg 36%
    02:00 +18°C° 0 mm 3 mps 695 mmHg 37%
    03:00 +18°C° 0 mm 3 mps 695 mmHg 37%
    04:00 +17°C° 0 mm 3 mps 695 mmHg 38%
    05:00 +19°C° 0 mm 3 mps 696 mmHg 34%
    06:00 +21°C° 0 mm 4 mps 696 mmHg 30%
    07:00 +23°C° 0 mm 4 mps 697 mmHg 26%
    08:00 +26°C° 0 mm 5 mps 697 mmHg 23%
    09:00 +28°C° 0 mm 5 mps 698 mmHg 20%
    10:00 +30°C° 0 mm 6 mps 698 mmHg 17%
    11:00 +32°C° 0 mm 6 mps 698 mmHg 16%
    12:00 +33°C° 0 mm 6 mps 698 mmHg 14%
    13:00 +33°C° 0 mm 6 mps 698 mmHg 13%
    14:00 +33°C° 0 mm 6 mps 698 mmHg 13%
    15:00 +33°C° 0 mm 7 mps 698 mmHg 13%
    16:00 +33°C° 0 mm 7 mps 698 mmHg 12%
    17:00 +30°C° 0 mm 6 mps 697 mmHg 15%
    18:00 +28°C° 0 mm 5 mps 697 mmHg 18%
    19:00 +25°C° 0 mm 5 mps 697 mmHg 20%
    20:00 +23°C° 0 mm 4 mps 697 mmHg 23%
    21:00 +22°C° 0 mm 4 mps 697 mmHg 25%
    22:00 +21°C° 0 mm 4 mps 698 mmHg 28%
    23:00 +21°C° 0 mm 3 mps 697 mmHg 29%

    Day after tomorrow, 19 August, Monday

    Time Temperature Precipitation Wind Pressure Humidity
    00:00 +20°C° 0 mm 3 mps 697 mmHg 31%
    01:00 +19°C° 0 mm 2 mps 697 mmHg 32%
    02:00 +19°C° 0 mm 2 mps 697 mmHg 33%
    03:00 +19°C° 0 mm 2 mps 697 mmHg 33%
    04:00 +18°C° 0 mm 2 mps 697 mmHg 34%
    05:00 +20°C° 0 mm 2 mps 697 mmHg 30%
    06:00 +23°C° 0 mm 2 mps 698 mmHg 26%
    07:00 +26°C° 0 mm 2 mps 699 mmHg 22%
    08:00 +28°C° 0 mm 3 mps 699 mmHg 20%
    09:00 +30°C° 0 mm 4 mps 699 mmHg 17%
    10:00 +34°C° 0 mm 5 mps 700 mmHg 14%
    11:00 +34°C° 0 mm 5 mps 699 mmHg 13%
    12:00 +35°C° 0 mm 5 mps 699 mmHg 12%
    13:00 +36°C° 0 mm 5 mps 699 mmHg 11%
    14:00 +36°C° 0 mm 6 mps 699 mmHg 11%
    15:00 +36°C° 0 mm 6 mps 698 mmHg 11%
    16:00 +36°C° 0 mm 6 mps 698 mmHg 10%
    17:00 +33°C° 0 mm 5 mps 698 mmHg 13%
    18:00 +29°C° 0 mm 5 mps 698 mmHg 15%
    19:00 +27°C° 0 mm 4 mps 698 mmHg 17%
    20:00 +26°C° 0 mm 4 mps 698 mmHg 20%
    21:00 +25°C° 0 mm 4 mps 698 mmHg 23%
    22:00 +23°C° 0 mm 4 mps 698 mmHg 25%
    23:00 +22°C° 0 mm 3 mps 697 mmHg 28%

    20 August, Tuesday

    Time Temperature Precipitation Wind Pressure Humidity
    00:00 +21°C° 0 mm 3 mps 697 mmHg 30%
    01:00 +20°C° 0 mm 2 mps 697 mmHg 33%
    02:00 +19°C° 0 mm 2 mps 696 mmHg 35%
    03:00 +19°C° 0 mm 2 mps 696 mmHg 36%
    04:00 +18°C° 0 mm 2 mps 696 mmHg 38%
    05:00 +20°C° 0 mm 2 mps 697 mmHg 33%
    06:00 +24°C° 0 mm 2 mps 697 mmHg 28%
    07:00 +26°C° 0 mm 3 mps 698 mmHg 24%
    08:00 +28°C° 0 mm 3 mps 698 mmHg 20%
    09:00 +31°C° 0 mm 3 mps 698 mmHg 17%
    10:00 +34°C° 0 mm 4 mps 699 mmHg 14%
    11:00 +35°C° 0 mm 4 mps 698 mmHg 12%
    12:00 +36°C° 0 mm 4 mps 698 mmHg 11%
    13:00 +37°C° 0 mm 4 mps 698 mmHg 10%
    14:00 +37°C° 0 mm 4 mps 698 mmHg 10%
    15:00 +37°C° 0 mm 5 mps 697 mmHg 10%
    16:00 +38°C° 0 mm 6 mps 697 mmHg 10%
    17:00 +34°C° 0 mm 5 mps 697 mmHg 13%
    18:00 +30°C° 0 mm 4 mps 696 mmHg 16%
    19:00 +28°C° 0 mm 3 mps 696 mmHg 19%
    20:00 +26°C° 0 mm 3 mps 696 mmHg 20%
    21:00 +25°C° 0 mm 2 mps 696 mmHg 21%
    22:00 +23°C° 0 mm 2 mps 695 mmHg 23%
    23:00 +23°C° 0 mm 2 mps 695 mmHg 25%

    21 August, Wednesday

    Time Temperature Precipitation Wind Pressure Humidity
    00:00 +22°C° 0 mm 1 mps 695 mmHg 27%
    01:00 +21°C° 0 mm 1 mps 695 mmHg 29%
    02:00 +21°C° 0 mm 1 mps 695 mmHg 29%
    03:00 +21°C° 0 mm 1 mps 695 mmHg 29%
    04:00 +21°C° 0 mm 1 mps 694 mmHg 28%
    05:00 +23°C° 0 mm 2 mps 695 mmHg 25%
    06:00 +25°C° 0 mm 2 mps 696 mmHg 21%
    07:00 +28°C° 0 mm 2 mps 696 mmHg 17%
    08:00 +30°C° 0 mm 3 mps 697 mmHg 16%
    09:00 +33°C° 0 mm 4 mps 697 mmHg 14%
    10:00 +35°C° 0 mm 5 mps 697 mmHg 13%
    11:00 +36°C° 0 mm 5 mps 697 mmHg 12%
    12:00 +36°C° 0 mm 5 mps 697 mmHg 12%
    13:00 +37°C° 0 mm 5 mps 697 mmHg 12%
    14:00 +37°C° 0 mm 5 mps 697 mmHg 12%
    15:00 +37°C° 0 mm 5 mps 696 mmHg 13%
    16:00 +37°C° 0 mm 5 mps 696 mmHg 13%
    17:00 +34°C° 0 mm 6 mps 696 mmHg 17%
    18:00 +32°C° 0 mm 6 mps 696 mmHg 21%
    19:00 +28°C° 0 mm 6 mps 696 mmHg 25%
    20:00 +27°C° 0 mm 5 mps 696 mmHg 28%
    21:00 +26°C° 0 mm 5 mps 696 mmHg 30%
    22:00 +25°C° 0 mm 4 mps 696 mmHg 32%
    23:00 +23°C° 0 mm 4 mps 696 mmHg 34%

    22 August, Thursday

    Time Temperature Precipitation Wind Pressure Humidity
    00:00 +22°C° 0 mm 4 mps 696 mmHg 35%
    01:00 +21°C° 0 mm 3 mps 695 mmHg 36%
    02:00 +21°C° 0 mm 3 mps 695 mmHg 39%
    03:00 +20°C° 0 mm 3 mps 695 mmHg 41%
    04:00 +20°C° 0 mm 3 mps 695 mmHg 44%
    05:00 +22°C° 0 mm 4 mps 696 mmHg 40%
    06:00 +23°C° 0 mm 4 mps 696 mmHg 37%
    07:00 +26°C° 0 mm 4 mps 697 mmHg 33%
    08:00 +28°C° 0 mm 5 mps 697 mmHg 28%
    09:00 +32°C° 0 mm 6 mps 697 mmHg 23%
    10:00 +34°C° 0 mm 7 mps 697 mmHg 18%
    11:00 +34°C° 0 mm 7 mps 697 mmHg 17%
    12:00 +35°C° 0 mm 7 mps 697 mmHg 16%
    13:00 +36°C° 0 mm 6 mps 696 mmHg 15%
    14:00 +36°C° 0 mm 6 mps 696 mmHg 15%
    15:00 +35°C° 0 mm 6 mps 696 mmHg 16%
    16:00 +35°C° 0 mm 6 mps 696 mmHg 16%
    17:00 +33°C° 0 mm 6 mps 695 mmHg 20%
    18:00 +30°C° 0 mm 5 mps 695 mmHg 23%
    19:00 +27°C° 0 mm 4 mps 695 mmHg 26%
    20:00 +26°C° 0 mm 4 mps 695 mmHg 28%
    21:00 +25°C° 0 mm 4 mps 695 mmHg 31%
    22:00 +23°C° 0 mm 4 mps 695 mmHg 33%
    23:00 +24°C° 0 mm 3 mps 695 mmHg 35%
    Show more